IST,Max TemperatureF,Mean TemperatureF,Min TemperatureF,Max Dew PointF,MeanDew PointF,Min DewpointF,Max Humidity, Mean Humidity, Min Humidity, Max Sea Level PressureIn, Mean Sea Level PressureIn, Min Sea Level PressureIn, Max VisibilityMiles, Mean VisibilityMiles, Min VisibilityMiles, Max Wind SpeedMPH, Mean Wind SpeedMPH, Max Gust SpeedMPH,PrecipitationIn, CloudCover, Events, WindDirDegrees
2012-9-1,96,87,78,72,70,67,78,58,34,29.77,29.72,29.59,6,4,2,14,9,,0.00,3,,262
2012-9-2,98,88,79,75,71,68,74,56,34,29.77,29.71,29.62,6,4,2,21,11,,0.00,3,,267
2012-9-3,96,88,80,73,70,67,74,56,33,29.71,29.67,29.61,6,4,2,26,13,,0.00,4,,286
2012-9-4,92,86,79,72,70,67,70,57,35,29.77,29.72,29.67,5,4,2,16,12,28,0.00,5,Rain,283
2012-9-5,100,90,80,75,70,67,70,53,31,29.80,29.73,29.65,6,4,2,13,8,,0.00,4,,233
2012-9-6,100,89,78,75,71,67,79,57,24,29.83,29.76,29.67,6,4,2,16,7,,0.00,2,Thunderstorm,264
2012-9-7,101,90,78,75,70,64,83,57,26,29.86,29.76,29.68,6,4,1,17,8,,0.16,3,Rain,268
2012-9-8,90,84,77,78,74,72,89,72,47,29.83,29.77,29.70,5,3,1,9,6,,0.01,6,Rain,255
2012-9-9,96,86,76,76,73,70,89,73,41,29.83,29.78,29.71,6,4,1,14,6,,0.16,4,Rain,255
2012-9-10,95,85,75,74,70,64,83,60,30,29.83,29.77,29.71,5,4,2,16,8,28,0.00,5,,266
2012-9-11,100,89,78,75,71,65,79,56,23,29.83,29.76,29.67,6,4,2,20,8,,0.00,2,,266
2012-9-12,99,88,78,73,69,64,74,54,23,29.83,29.77,29.68,6,4,2,17,9,,0.00,2,,272
2012-9-13,99,89,79,75,70,66,84,55,26,29.86,29.78,29.70,6,5,2,16,10,,0.00,2,Thunderstorm,253
2012-9-14,100,89,78,75,72,66,83,62,33,29.86,29.77,29.65,6,4,2,15,7,,0.00,4,Thunderstorm,251
2012-9-15,96,87,78,78,72,69,89,66,33,29.80,29.75,29.68,6,4,2,13,7,,0.08,5,Rain-Thunderstorm,254
2012-9-16,98,88,78,76,71,66,96,58,27,29.80,29.75,29.65,5,4,2,17,9,,0.00,3,,281
2012-9-17,101,90,79,77,71,65,84,57,24,29.83,29.75,29.64,6,4,2,16,8,,0.03,3,Rain-Thunderstorm,276
2012-9-18,100,90,75,75,71,68,89,58,27,29.83,29.75,29.66,6,4,1,21,9,,0.24,4,Rain-Hail-Thunderstorm,309
2012-9-19,99,86,72,75,72,68,94,65,28,29.80,29.75,29.65,5,4,2,9,4,,0.00,2,,218
2012-9-20,95,86,77,75,73,69,83,66,34,29.83,29.76,29.68,5,4,2,10,4,,0.00,3,,223
2012-9-21,99,88,76,75,71,68,79,59,33,29.83,29.77,29.68,6,4,2,14,5,,0.00,1,,206
2012-9-22,100,88,77,75,72,68,100,61,28,29.89,29.79,29.71,5,4,2,14,5,,0.00,2,,227
2012-9-23,99,90,80,75,72,69,79,60,34,29.86,29.79,29.71,4,3,2,28,5,,0.00,4,,216
2012-9-24,100,89,76,75,71,66,83,58,24,29.83,29.78,29.68,5,4,2,17,7,,0.04,3,Rain,269
2012-9-25,100,88,75,73,70,63,83,57,23,29.83,29.77,29.70,4,3,2,18,8,,0.00,3,,275
2012-9-26,102,90,79,78,72,65,79,55,22,29.92,29.79,29.60,5,4,2,14,6,,0.00,3,Thunderstorm,270
2012-9-27,101,88,76,75,71,63,94,68,22,29.89,29.83,29.71,5,4,2,16,7,,0.12,5,Rain-Thunderstorm,319
2012-9-28,93,84,74,75,73,70,95,69,41,29.89,29.80,29.70,4,3,1,17,9,,0.87,6,Rain-Thunderstorm,301
2012-9-29,94,83,72,78,74,70,96,72,41,29.83,29.76,29.67,5,3,1,15,6,,0.04,4,Rain,291
2012-9-30,94,85,76,77,74,72,94,72,44,29.80,29.74,29.65,5,3,1,16,6,,0.79,5,Rain-Hail-Thunderstorm,275